ITY577 LIRF-LEPA

Flight info

Callsign ITY577
Flight time 1h 25m
Altitude 37000
Route ESINO DCT ABIDU DCT OKIDO DCT KOLUS DCT GOKMI DCT SUPUX DCT KUPIM DCT SUXER DCT RIPAL DCT MORSS
Aircraft A320/M-SDE3FGHIRWY/LB1

Departure

Time 2026-05-05 08:08
Airport Rome–Fiumicino Leonardo da Vinci International Airport (LIRF)

Arrival

Time 2026-05-05 09:34
Airport Palma de Mallorca Airport (LEPA)
Time Latitude Longitude Altitude Speed Heading
2026-05-05 07:38 41.79625 12.25942 14 ft 0 kts 294°
2026-05-05 07:53 41.79624 12.25945 15 ft 3 kts 295°
2026-05-05 07:53 41.79615 12.25972 16 ft 4 kts 298°
2026-05-05 07:53 41.79598 12.25994 17 ft 4 kts 353°
2026-05-05 07:53 41.79572 12.25991 17 ft 4 kts 21°
2026-05-05 07:54 41.79564 12.25987 15 ft 0 kts 25°
2026-05-05 07:58 41.79569 12.25990 17 ft 3 kts 25°
2026-05-05 07:58 41.79609 12.26016 15 ft 7 kts 25°
2026-05-05 07:58 41.79653 12.26043 15 ft 7 kts 25°
2026-05-05 07:59 41.79719 12.26085 14 ft 12 kts 25°
2026-05-05 07:59 41.79787 12.26140 14 ft 11 kts 29°
2026-05-05 07:59 41.79853 12.26183 15 ft 10 kts 24°
2026-05-05 07:59 41.79925 12.26227 15 ft 12 kts 24°
2026-05-05 08:00 41.80001 12.26274 14 ft 13 kts 24°
2026-05-05 08:00 41.80082 12.26324 15 ft 14 kts 25°
2026-05-05 08:00 41.80178 12.26384 14 ft 16 kts 25°
2026-05-05 08:00 41.80273 12.26405 16 ft 14 kts 346°
2026-05-05 08:01 41.80357 12.26367 14 ft 12 kts 341°
2026-05-05 08:01 41.80425 12.26398 16 ft 12 kts 53°
2026-05-05 08:01 41.80459 12.26512 15 ft 14 kts 70°
2026-05-05 08:01 41.80496 12.26644 15 ft 16 kts 70°
2026-05-05 08:02 41.80538 12.26799 14 ft 19 kts 70°
2026-05-05 08:02 41.80583 12.26962 13 ft 14 kts 70°
2026-05-05 08:02 41.80627 12.27041 13 ft 11 kts 19°
2026-05-05 08:02 41.80698 12.27051 13 ft 9 kts
2026-05-05 08:03 41.80754 12.27056 14 ft 8 kts
2026-05-05 08:03 41.80825 12.27034 13 ft 11 kts 340°
2026-05-05 08:03 41.80871 12.27011 13 ft 0 kts 340°
2026-05-05 08:04 41.80874 12.27009 13 ft 0 kts 340°
2026-05-05 08:05 41.80880 12.27006 13 ft 5 kts 340°
2026-05-05 08:05 41.80914 12.26990 13 ft 5 kts 340°
2026-05-05 08:05 41.80950 12.26961 13 ft 12 kts 311°
2026-05-05 08:05 41.80949 12.26892 14 ft 0 kts 250°
2026-05-05 08:07 41.80948 12.26890 14 ft 2 kts 250°
2026-05-05 08:07 41.80882 12.26651 14 ft 65 kts 249°
2026-05-05 08:07 41.80642 12.25789 18 ft 131 kts 250°
2026-05-05 08:08 41.80280 12.24455 178 ft 164 kts 244°
2026-05-05 08:08 41.79876 12.23024 857 ft 164 kts 243°
2026-05-05 08:08 41.79460 12.21587 1500 ft 171 kts 243°
2026-05-05 08:08 41.79253 12.19879 1904 ft 200 kts 262°
2026-05-05 08:09 41.79210 12.17968 2572 ft 206 kts 262°
2026-05-05 08:09 41.79114 12.16088 3544 ft 198 kts 252°
2026-05-05 08:09 41.78555 12.14446 4431 ft 194 kts 230°
2026-05-05 08:09 41.77599 12.13172 5258 ft 195 kts 224°
2026-05-05 08:10 41.76594 12.11928 6035 ft 198 kts 224°
2026-05-05 08:10 41.75577 12.10670 6766 ft 201 kts 225°
2026-05-05 08:10 41.74543 12.09388 7485 ft 204 kts 225°
2026-05-05 08:10 41.73511 12.08108 8219 ft 207 kts 225°
2026-05-05 08:11 41.72450 12.06792 9011 ft 209 kts 225°
2026-05-05 08:11 41.71368 12.05469 9788 ft 213 kts 221°
2026-05-05 08:11 41.70037 12.04547 10468 ft 223 kts 200°
2026-05-05 08:11 41.68393 12.04325 10785 ft 253 kts 185°
2026-05-05 08:12 41.66555 12.04325 11101 ft 277 kts 185°
2026-05-05 08:12 41.64544 12.04324 11393 ft 301 kts 185°
2026-05-05 08:12 41.62421 12.03950 11714 ft 314 kts 201°
2026-05-05 08:12 41.60485 12.02678 12370 ft 316 kts 218°
2026-05-05 08:13 41.58745 12.00865 13156 ft 319 kts 221°
2026-05-05 08:13 41.56996 11.99014 13954 ft 322 kts 221°
2026-05-05 08:13 41.55234 11.97149 14651 ft 325 kts 221°
2026-05-05 08:13 41.53453 11.95263 15336 ft 329 kts 221°
2026-05-05 08:14 41.51654 11.93357 16026 ft 332 kts 221°
2026-05-05 08:14 41.49836 11.91434 16716 ft 335 kts 221°
2026-05-05 08:14 41.47997 11.89493 17410 ft 338 kts 221°
2026-05-05 08:14 41.46141 11.87536 18073 ft 342 kts 220°
2026-05-05 08:15 41.44288 11.85587 18677 ft 346 kts 220°
2026-05-05 08:15 41.42393 11.83596 19278 ft 348 kts 221°
2026-05-05 08:15 41.40499 11.81573 19897 ft 349 kts 224°
2026-05-05 08:15 41.38864 11.79191 20509 ft 349 kts 236°
2026-05-05 08:16 41.38012 11.77380 20929 ft 349 kts 243°
2026-05-05 08:16 41.36810 11.73364 21777 ft 350 kts 250°
2026-05-05 08:16 41.36265 11.71336 22205 ft 351 kts 250°
2026-05-05 08:16 41.35152 11.67232 23044 ft 354 kts 250°
2026-05-05 08:17 41.34322 11.64184 23650 ft 356 kts 250°
2026-05-05 08:17 41.33480 11.61087 24163 ft 357 kts 250°
2026-05-05 08:17 41.32908 11.58984 24510 ft 358 kts 250°
2026-05-05 08:17 41.31783 11.54851 25176 ft 359 kts 250°
2026-05-05 08:18 41.30931 11.51727 25687 ft 360 kts 250°
2026-05-05 08:18 41.30366 11.49655 25997 ft 360 kts 250°
2026-05-05 08:18 41.29508 11.46519 26480 ft 361 kts 250°
2026-05-05 08:18 41.28648 11.43379 26947 ft 362 kts 250°
2026-05-05 08:19 41.27783 11.40230 27404 ft 363 kts 250°
2026-05-05 08:19 41.26630 11.36047 27999 ft 365 kts 250°
2026-05-05 08:19 41.25759 11.32881 28433 ft 366 kts 250°
2026-05-05 08:19 41.24883 11.29701 28870 ft 367 kts 250°
2026-05-05 08:20 41.24301 11.27590 29145 ft 368 kts 250°
2026-05-05 08:20 41.23417 11.24392 29545 ft 369 kts 250°
2026-05-05 08:20 41.22529 11.21185 29937 ft 371 kts 249°
2026-05-05 08:20 41.21637 11.17967 30278 ft 372 kts 249°
2026-05-05 08:21 41.20740 11.14737 30570 ft 374 kts 249°
2026-05-05 08:21 41.19835 11.11479 30855 ft 376 kts 249°
2026-05-05 08:21 41.18633 11.07147 31215 ft 379 kts 249°
2026-05-05 08:21 41.18029 11.04971 31390 ft 380 kts 249°
2026-05-05 08:22 41.17109 11.01670 31655 ft 382 kts 249°
2026-05-05 08:22 41.16189 10.98374 32014 ft 381 kts 249°
2026-05-05 08:22 41.15265 10.95074 32383 ft 380 kts 249°
2026-05-05 08:22 41.14346 10.91790 32744 ft 380 kts 249°
2026-05-05 08:23 41.13131 10.87443 33220 ft 379 kts 249°
2026-05-05 08:23 41.12213 10.84167 33564 ft 379 kts 249°
2026-05-05 08:23 41.11591 10.81953 33800 ft 379 kts 249°
2026-05-05 08:23 41.10674 10.78682 34139 ft 379 kts 250°
2026-05-05 08:24 41.09764 10.75449 34431 ft 379 kts 250°
2026-05-05 08:24 41.08839 10.72177 34715 ft 379 kts 250°
2026-05-05 08:24 41.07913 10.68904 34974 ft 379 kts 250°
2026-05-05 08:24 41.06991 10.65635 35236 ft 380 kts 250°
2026-05-05 08:25 41.06062 10.62353 35499 ft 380 kts 250°
2026-05-05 08:25 41.05133 10.59079 35754 ft 380 kts 250°
2026-05-05 08:25 41.04204 10.55802 36002 ft 380 kts 250°
2026-05-05 08:25 41.03273 10.52524 36237 ft 380 kts 250°
2026-05-05 08:26 41.02353 10.49292 36481 ft 380 kts 250°
2026-05-05 08:26 41.01419 10.46015 36709 ft 380 kts 250°
2026-05-05 08:26 41.00482 10.42740 36935 ft 381 kts 250°
2026-05-05 08:26 40.99547 10.39459 37032 ft 380 kts 250°
2026-05-05 08:27 40.97689 10.32940 37041 ft 378 kts 250°
2026-05-05 08:27 40.95827 10.26448 37041 ft 378 kts 250°
2026-05-05 08:28 40.93967 10.19995 37040 ft 378 kts 250°
2026-05-05 08:28 40.92097 10.13500 37041 ft 378 kts 250°
2026-05-05 08:29 40.90221 10.07001 37039 ft 378 kts 249°
2026-05-05 08:30 40.87399 9.97305 37038 ft 379 kts 249°
2026-05-05 08:30 40.85515 9.90810 37033 ft 379 kts 249°
2026-05-05 08:31 40.83620 9.84318 37033 ft 379 kts 249°
2026-05-05 08:31 40.81721 9.77830 37036 ft 379 kts 249°
2026-05-05 08:32 40.79819 9.71341 37044 ft 379 kts 249°
2026-05-05 08:32 40.77930 9.64903 37039 ft 379 kts 249°
2026-05-05 08:33 40.76028 9.58414 37045 ft 379 kts 249°
2026-05-05 08:33 40.74122 9.51938 37045 ft 379 kts 249°
2026-05-05 08:34 40.72204 9.45474 37038 ft 378 kts 249°
2026-05-05 08:34 40.70485 9.38970 37044 ft 378 kts 253°
2026-05-05 08:35 40.69034 9.32309 37043 ft 378 kts 253°
2026-05-05 08:35 40.67597 9.25642 37044 ft 378 kts 253°
2026-05-05 08:36 40.66088 9.19008 37053 ft 378 kts 252°
2026-05-05 08:36 40.64553 9.12385 37051 ft 378 kts 252°
2026-05-05 08:37 40.63031 9.05806 37044 ft 378 kts 252°
2026-05-05 08:37 40.61500 8.99189 37050 ft 378 kts 252°
2026-05-05 08:38 40.59966 8.92575 37048 ft 378 kts 252°
2026-05-05 08:38 40.58422 8.85962 37049 ft 378 kts 252°
2026-05-05 08:39 40.56890 8.79405 37054 ft 377 kts 252°
2026-05-05 08:39 40.55352 8.72808 37050 ft 377 kts 252°
2026-05-05 08:40 40.53809 8.66220 37040 ft 377 kts 252°
2026-05-05 08:40 40.52256 8.59641 37033 ft 377 kts 252°
2026-05-05 08:41 40.50708 8.53108 37027 ft 377 kts 252°
2026-05-05 08:41 40.49158 8.46540 37020 ft 376 kts 252°
2026-05-05 08:42 40.47606 8.39972 37018 ft 376 kts 252°
2026-05-05 08:42 40.46046 8.33415 37020 ft 376 kts 252°
2026-05-05 08:43 40.44487 8.26913 37017 ft 376 kts 252°
2026-05-05 08:43 40.43569 8.20172 37025 ft 377 kts 264°
2026-05-05 08:44 40.43208 8.13302 37028 ft 377 kts 264°
2026-05-05 08:44 40.42829 8.06437 37033 ft 377 kts 264°
2026-05-05 08:45 40.42413 7.99624 37034 ft 376 kts 260°
2026-05-05 08:45 40.41565 7.92857 37037 ft 376 kts 259°
2026-05-05 08:46 40.40708 7.86094 37036 ft 376 kts 259°
2026-05-05 08:46 40.39849 7.79336 37038 ft 375 kts 259°
2026-05-05 08:47 40.38998 7.72631 37033 ft 375 kts 259°
2026-05-05 08:47 40.38137 7.65884 37030 ft 375 kts 259°
2026-05-05 08:48 40.37268 7.59137 37028 ft 375 kts 259°
2026-05-05 08:48 40.36393 7.52395 37032 ft 375 kts 259°
2026-05-05 08:49 40.35515 7.45653 37032 ft 375 kts 259°
2026-05-05 08:49 40.34641 7.38970 37029 ft 375 kts 259°
2026-05-05 08:50 40.33759 7.32234 37031 ft 375 kts 259°
2026-05-05 08:50 40.32883 7.25506 37030 ft 374 kts 259°
2026-05-05 08:51 40.31999 7.18784 37029 ft 374 kts 259°
2026-05-05 08:51 40.31105 7.12066 37029 ft 374 kts 259°
2026-05-05 08:52 40.30211 7.05393 37030 ft 374 kts 259°
2026-05-05 08:52 40.29311 6.98682 37031 ft 374 kts 259°
2026-05-05 08:53 40.28405 6.91980 37027 ft 374 kts 258°
2026-05-05 08:53 40.27497 6.85283 37030 ft 373 kts 258°
2026-05-05 08:54 40.26597 6.78632 37032 ft 373 kts 258°
2026-05-05 08:54 40.25689 6.71936 37030 ft 374 kts 259°
2026-05-05 08:55 40.24774 6.65244 37033 ft 373 kts 258°
2026-05-05 08:55 40.23852 6.58550 37037 ft 374 kts 258°
2026-05-05 08:56 40.22927 6.51865 37033 ft 373 kts 258°
2026-05-05 08:56 40.22011 6.45241 37032 ft 372 kts 258°
2026-05-05 08:57 40.21078 6.38579 37033 ft 372 kts 258°
2026-05-05 08:57 40.20144 6.31927 37036 ft 371 kts 258°
2026-05-05 08:58 40.19208 6.25285 37030 ft 371 kts 258°
2026-05-05 08:58 40.18274 6.18700 37026 ft 371 kts 258°
2026-05-05 08:59 40.17335 6.12078 37028 ft 370 kts 258°
2026-05-05 08:59 40.16394 6.05458 37025 ft 370 kts 258°
2026-05-05 09:00 40.15452 5.98851 37023 ft 370 kts 258°
2026-05-05 09:00 40.14503 5.92247 37021 ft 369 kts 258°
2026-05-05 09:01 40.13552 5.85700 37020 ft 369 kts 258°
2026-05-05 09:01 40.12618 5.79119 37020 ft 368 kts 258°
2026-05-05 09:02 40.11698 5.72524 36691 ft 368 kts 258°
2026-05-05 09:02 40.11234 5.69236 36430 ft 368 kts 258°
2026-05-05 09:02 40.10772 5.65993 36177 ft 368 kts 258°
2026-05-05 09:02 40.10304 5.62711 35923 ft 368 kts 258°
2026-05-05 09:03 40.09837 5.59427 35670 ft 368 kts 258°
2026-05-05 09:03 40.09370 5.56146 35420 ft 366 kts 258°
2026-05-05 09:03 40.08910 5.52917 35063 ft 359 kts 258°
2026-05-05 09:03 40.08455 5.49730 34627 ft 354 kts 258°
2026-05-05 09:04 40.08007 5.46585 34189 ft 350 kts 258°
2026-05-05 09:04 40.07563 5.43470 33729 ft 348 kts 258°
2026-05-05 09:04 40.07126 5.40426 33314 ft 345 kts 258°
2026-05-05 09:04 40.06684 5.37364 32884 ft 341 kts 258°
2026-05-05 09:05 40.06245 5.34341 32469 ft 337 kts 258°
2026-05-05 09:05 40.05810 5.31356 32056 ft 333 kts 258°
2026-05-05 09:05 40.05380 5.28398 31650 ft 330 kts 258°
2026-05-05 09:05 40.04956 5.25478 31257 ft 326 kts 258°
2026-05-05 09:06 40.04537 5.22589 30867 ft 322 kts 258°
2026-05-05 09:06 40.04121 5.19736 30493 ft 318 kts 257°
2026-05-05 09:06 40.03703 5.16912 30124 ft 315 kts 257°
2026-05-05 09:06 40.03295 5.14159 29720 ft 311 kts 257°
2026-05-05 09:07 40.02892 5.11412 29372 ft 306 kts 257°
2026-05-05 09:07 40.02497 5.08707 29010 ft 302 kts 257°
2026-05-05 09:07 40.02103 5.06023 28683 ft 300 kts 257°
2026-05-05 09:07 40.01708 5.03355 28343 ft 299 kts 257°
2026-05-05 09:08 40.01315 5.00692 28006 ft 298 kts 257°
2026-05-05 09:08 40.00923 4.98040 27670 ft 297 kts 257°
2026-05-05 09:08 40.00532 4.95401 27327 ft 296 kts 257°
2026-05-05 09:08 40.00147 4.92799 26996 ft 295 kts 257°
2026-05-05 09:09 39.99757 4.90175 26652 ft 294 kts 257°
2026-05-05 09:09 39.99366 4.87559 26301 ft 293 kts 257°
2026-05-05 09:09 39.98976 4.84954 25960 ft 293 kts 257°
2026-05-05 09:09 39.98585 4.82352 25600 ft 292 kts 257°
2026-05-05 09:10 39.98195 4.79759 25238 ft 291 kts 257°
2026-05-05 09:10 39.97806 4.77173 24869 ft 291 kts 256°
2026-05-05 09:10 39.97354 4.74600 24411 ft 291 kts 254°
2026-05-05 09:10 39.96847 4.72082 23978 ft 291 kts 253°
2026-05-05 09:11 39.96313 4.69542 23523 ft 292 kts 253°
2026-05-05 09:11 39.95770 4.66990 23018 ft 292 kts 253°
2026-05-05 09:11 39.95231 4.64428 22685 ft 300 kts 253°
2026-05-05 09:11 39.94675 4.61766 22369 ft 307 kts 253°
2026-05-05 09:12 39.94115 4.59068 22032 ft 308 kts 253°
2026-05-05 09:12 39.93559 4.56374 21702 ft 307 kts 253°
2026-05-05 09:12 39.93015 4.53725 21377 ft 306 kts 253°
2026-05-05 09:12 39.92467 4.51051 21048 ft 305 kts 253°
2026-05-05 09:13 39.91919 4.48387 20714 ft 304 kts 253°
2026-05-05 09:13 39.91371 4.45739 20394 ft 303 kts 253°
2026-05-05 09:13 39.90823 4.43094 20074 ft 301 kts 254°
2026-05-05 09:13 39.90280 4.40465 19752 ft 300 kts 254°
2026-05-05 09:14 39.89735 4.37842 19426 ft 299 kts 254°
2026-05-05 09:14 39.89193 4.35237 19106 ft 298 kts 254°
2026-05-05 09:14 39.88663 4.32674 18795 ft 297 kts 254°
2026-05-05 09:14 39.88127 4.30090 18489 ft 296 kts 254°
2026-05-05 09:15 39.87592 4.27513 18145 ft 294 kts 254°
2026-05-05 09:15 39.87055 4.24944 17804 ft 293 kts 254°
2026-05-05 09:15 39.86523 4.22400 17413 ft 291 kts 254°
2026-05-05 09:15 39.85994 4.19866 17003 ft 289 kts 253°
2026-05-05 09:16 39.85466 4.17341 16613 ft 288 kts 253°
2026-05-05 09:16 39.84942 4.14832 16233 ft 287 kts 253°
2026-05-05 09:16 39.84426 4.12363 15861 ft 286 kts 253°
2026-05-05 09:16 39.83901 4.09868 15482 ft 285 kts 253°
2026-05-05 09:17 39.83378 4.07386 15123 ft 284 kts 253°
2026-05-05 09:17 39.82859 4.04905 14757 ft 284 kts 253°
2026-05-05 09:17 39.82339 4.02437 14399 ft 283 kts 253°
2026-05-05 09:17 39.81820 3.99974 14051 ft 282 kts 253°
2026-05-05 09:18 39.81301 3.97521 13693 ft 281 kts 253°
2026-05-05 09:18 39.80785 3.95072 13299 ft 280 kts 253°
2026-05-05 09:18 39.80277 3.92667 12913 ft 279 kts 253°
2026-05-05 09:18 39.79765 3.90240 12534 ft 278 kts 252°
2026-05-05 09:19 39.79255 3.87821 12164 ft 277 kts 252°
2026-05-05 09:19 39.78747 3.85410 11792 ft 275 kts 252°
2026-05-05 09:19 39.78244 3.83021 11462 ft 273 kts 252°
2026-05-05 09:19 39.77743 3.80646 11111 ft 272 kts 252°
2026-05-05 09:20 39.77240 3.78278 10739 ft 271 kts 252°
2026-05-05 09:20 39.76737 3.75917 10376 ft 271 kts 252°
2026-05-05 09:20 39.76242 3.73599 10005 ft 270 kts 252°
2026-05-05 09:20 39.75740 3.71252 9588 ft 269 kts 252°
2026-05-05 09:21 39.75237 3.68910 9303 ft 269 kts 252°
2026-05-05 09:21 39.74736 3.66565 9043 ft 269 kts 252°
2026-05-05 09:21 39.74236 3.64220 8787 ft 269 kts 252°
2026-05-05 09:21 39.73737 3.61879 8523 ft 269 kts 252°
2026-05-05 09:22 39.73238 3.59542 8277 ft 268 kts 252°
2026-05-05 09:22 39.72739 3.57217 8022 ft 267 kts 252°
2026-05-05 09:22 39.72244 3.54923 7762 ft 267 kts 252°
2026-05-05 09:22 39.71744 3.52605 7529 ft 267 kts 252°
2026-05-05 09:23 39.71244 3.50291 7283 ft 266 kts 252°
2026-05-05 09:23 39.70743 3.47980 7035 ft 266 kts 252°
2026-05-05 09:23 39.70243 3.45673 6795 ft 265 kts 252°
2026-05-05 09:23 39.69767 3.43366 6551 ft 265 kts 257°
2026-05-05 09:24 39.69516 3.40994 6311 ft 264 kts 261°
2026-05-05 09:24 39.69282 3.38664 6058 ft 264 kts 260°
2026-05-05 09:24 39.69042 3.36308 5852 ft 263 kts 260°
2026-05-05 09:24 39.68800 3.33951 5651 ft 263 kts 260°
2026-05-05 09:25 39.68556 3.31604 5444 ft 262 kts 260°
2026-05-05 09:25 39.68312 3.29256 5204 ft 262 kts 260°
2026-05-05 09:25 39.68068 3.26921 4956 ft 261 kts 260°
2026-05-05 09:25 39.67823 3.24590 4712 ft 260 kts 260°
2026-05-05 09:26 39.67580 3.22261 4505 ft 261 kts 260°
2026-05-05 09:26 39.67339 3.19934 4300 ft 260 kts 260°
2026-05-05 09:26 39.67099 3.17615 4096 ft 259 kts 260°
2026-05-05 09:26 39.66860 3.15328 3897 ft 259 kts 260°
2026-05-05 09:27 39.66646 3.13299 3724 ft 258 kts 260°
2026-05-05 09:27 39.66406 3.11024 3519 ft 249 kts 260°
2026-05-05 09:27 39.66175 3.08838 3320 ft 240 kts 260°
2026-05-05 09:27 39.65952 3.06738 3121 ft 231 kts 260°
2026-05-05 09:28 39.65735 3.04699 2918 ft 224 kts 259°
2026-05-05 09:28 39.65527 3.02730 2718 ft 217 kts 260°
2026-05-05 09:28 39.65327 3.00835 2578 ft 212 kts 259°
2026-05-05 09:28 39.65132 2.98986 2502 ft 201 kts 258°
2026-05-05 09:29 39.64948 2.97238 2498 ft 191 kts 259°
2026-05-05 09:29 39.64657 2.95594 2504 ft 185 kts 242°
2026-05-05 09:29 39.64017 2.94171 2512 ft 182 kts 237°
2026-05-05 09:29 39.63359 2.92771 2507 ft 182 kts 236°
2026-05-05 09:30 39.62703 2.91375 2501 ft 181 kts 236°
2026-05-05 09:30 39.62045 2.89974 2418 ft 182 kts 236°
2026-05-05 09:30 39.61391 2.88584 2250 ft 178 kts 236°
2026-05-05 09:30 39.60766 2.87254 2008 ft 167 kts 237°
2026-05-05 09:31 39.60187 2.86023 1773 ft 157 kts 236°
2026-05-05 09:31 39.59647 2.84875 1582 ft 142 kts 236°
2026-05-05 09:31 39.59150 2.83820 1416 ft 135 kts 235°
2026-05-05 09:31 39.58666 2.82793 1228 ft 132 kts 236°
2026-05-05 09:32 39.58181 2.81768 1046 ft 134 kts 235°
2026-05-05 09:32 39.57701 2.80748 879 ft 131 kts 235°
2026-05-05 09:32 39.57224 2.79737 688 ft 133 kts 236°
2026-05-05 09:32 39.56745 2.78722 518 ft 130 kts 237°
2026-05-05 09:33 39.56277 2.77724 358 ft 132 kts 237°
2026-05-05 09:33 39.55798 2.76716 157 ft 131 kts 238°
2026-05-05 09:33 39.55332 2.75722 38 ft 123 kts 238°
2026-05-05 09:33 39.54970 2.74959 38 ft 74 kts 238°
2026-05-05 09:34 39.54785 2.74568 37 ft 40 kts 238°
2026-05-05 09:34 39.54659 2.74299 38 ft 29 kts 239°
2026-05-05 09:34 39.54570 2.74084 37 ft 27 kts 255°
2026-05-05 09:34 39.54552 2.73889 38 ft 20 kts 270°
2026-05-05 09:35 39.54552 2.73755 38 ft 14 kts 271°
2026-05-05 09:35 39.54640 2.73638 36 ft 9 kts 32°
2026-05-05 09:35 39.54675 2.73705 38 ft 9 kts 59°
2026-05-05 09:36 39.54706 2.73773 38 ft 12 kts 59°
2026-05-05 09:36 39.54758 2.73882 38 ft 14 kts 55°
2026-05-05 09:36 39.54810 2.73981 38 ft 13 kts 46°
2026-05-05 09:36 39.54885 2.73972 37 ft 11 kts 329°
2026-05-05 09:37 39.54948 2.73920 38 ft 10 kts 328°
2026-05-05 09:37 39.55022 2.73863 38 ft 12 kts 329°
2026-05-05 09:37 39.55086 2.73814 38 ft 6 kts 329°
2026-05-05 09:37 39.55094 2.73808 38 ft 0 kts 329°
2026-05-05 09:39 39.55126 2.73783 38 ft 12 kts 329°
2026-05-05 09:39 39.55181 2.73724 38 ft 10 kts 290°
2026-05-05 09:39 39.55155 2.73644 38 ft 11 kts 238°
2026-05-05 09:39 39.55116 2.73561 37 ft 9 kts 238°
2026-05-05 09:40 39.55074 2.73526 38 ft 9 kts 164°
2026-05-05 09:40 39.55048 2.73534 38 ft 2 kts 165°
2026-05-05 09:40 39.55041 2.73537 38 ft 0 kts 164°